This is the latest recevied weather packets stored in our database for station/object EB2EMZ-5. If no packets are shown the sender has not sent any weather packets the latest 10 day(s).
| Time | Temp. | Humidity | Pressure | Rain* | Wind** | Luminosity | Snow |
|---|---|---|---|---|---|---|---|
| 1777835628 | 32.22° C | 25% | 996.6 hPa | - | - | - | - |
| 1777835328 | 33.33° C | 25% | 996.5 hPa | - | - | - | - |
| 1777835028 | 33.89° C | 24% | 996.5 hPa | - | - | - | - |
| 1777834728 | 35° C | 24% | 996.4 hPa | - | - | - | - |
| 1777834428 | 35.56° C | 24% | 996.5 hPa | - | - | - | - |
| 1777834127 | 36.11° C | 24% | 996.5 hPa | - | - | - | - |
| 1777833827 | 36.67° C | 24% | 996.3 hPa | - | - | - | - |
| 1777833527 | 36.67° C | 24% | 996.4 hPa | - | - | - | - |
| 1777833227 | 36.11° C | 24% | 996.4 hPa | - | - | - | - |
| 1777832627 | 34.44° C | 25% | 996.3 hPa | - | - | - | - |
| 1777832327 | 32.78° C | 26% | 996.2 hPa | - | - | - | - |
| 1777832027 | 32.22° C | 26% | 996.3 hPa | - | - | - | - |
| 1777831727 | 32.22° C | 26% | 996.2 hPa | - | - | - | - |
| 1777831427 | 32.78° C | 26% | 995.9 hPa | - | - | - | - |
| 1777831127 | 32.78° C | 26% | 995.9 hPa | - | - | - | - |
| 1777830827 | 33.33° C | 26% | 995.8 hPa | - | - | - | - |
| 1777830527 | 33.33° C | 26% | 995.8 hPa | - | - | - | - |
| 1777830227 | 33.89° C | 26% | 995.8 hPa | - | - | - | - |
| 1777829927 | 33.89° C | 26% | 995.8 hPa | - | - | - | - |
| 1777829627 | 34.44° C | 26% | 995.8 hPa | - | - | - | - |
| 1777829327 | 34.44° C | 26% | 995.7 hPa | - | - | - | - |
| 1777829027 | 34.44° C | 26% | 995.6 hPa | - | - | - | - |
| 1777828727 | 34.44° C | 26% | 995.7 hPa | - | - | - | - |
| 1777828429 | 34.44° C | 26% | 995.9 hPa | - | - | - | - |
| 1777828127 | 34.44° C | 27% | 995.9 hPa | - | - | - | - |
* Rain since midnight (hover to see other rain measurements)
** Current wind speed in m/s (hover to see current wind gust speed)